Presure
268 258 239 249 321 385 361 429 429 468 450 410 394 388 390 397 406 399 395 389 192 386 390 402 408 413 420 436 476 523 540 276 250 237 210 207 196 225
237 240 290 319 337 411 414 428 451 437 422 392 383 391 386 376 374 370 369 371 373 377 381 389 395 402 408 416 429 467 503 532 317 263 220 212 209 197
207 299 309 365 353 408 396 448 426 403 406 391 355 351 349 348 347 346 352 373 373 377 376 388 387 389 402 408 416 429 458 497 441 297 264 223 208 210
331 278 362 353 413 387 452 425 397 396 356 346 336 359 362 366 370 375 371 382 385 386 422 413 413 431 387 401 411 413 426 456 492 394 270 182 207 198
267 310 362 407 390 414 427 393 365 346 351 355 354 358 368 372 369 375 376 380 413 383 378 377 382 389 401 419 435 411 416 425 464 481 293 266 241 210
288 348 329 406 378 431 397 363 343 335 334 334 340 358 382 374 371 373 404 377 365 362 362 363 372 239 384 394 413 434 410 411 430 466 509 282 255 244
350 326 364 395 453 406 375 343 332 329 320 325 342 384 380 373 370 391 366 357 351 360 371 381 377 385 392 376 396 420 395 409 407 442 483 307 278 243
342 339 413 383 435 395 351 334 325 320 314 318 336 385 388 367 377 356 356 362 366 371 377 372 280 259 389 368 375 398 438 401 402 420 469 457 289 268
326 378 394 370 416 369 341 323 314 309 311 312 335 406 368 379 350 347 349 367 362 369 378 368 155 360 356 356 360 421 407 458 397 402 432 444 435 280
349 412 377 435 402 357 331 318 310 306 303 307 326 377 396 356 347 345 344 355 366 371 364 356 351 344 479 482 481 441 407 447 387 388 411 460 459 443
414 390 362 414 398 348 324 314 307 303 300 299 315 361 395 352 341 336 340 355 369 362 431 467 487 473 474 478 469 435 427 442 385 386 391 441 462 484
404 371 383 393 388 345 323 311 302 299 295 295 309 329 395 352 339 338 338 349 367 355 449 440 456 473 469 460 460 440 428 434 394 379 375 425 443 464
380 359 409 376 379 341 322 310 300 296 291 295 297 313 383 356 336 334 343 347 365 361 435 434 441 465 456 451 451 431 422 432 392 372 371 416 427 454
363 348 394 370 364 341 321 308 296 293 292 291 293 307 352 380 341 334 344 344 362 352 422 428 439 456 455 452 444 427 414 428 380 363 371 385 412 418
350 352 381 361 345 366 322 310 303 299 293 294 300 301 317 385 339 334 341 341 364 347 409 415 427 450 460 447 431 421 410 423 376 359 364 388 398 410
337 399 374 356 342 358 322 314 305 301 299 299 295 293 308 385 339 333 336 339 362 338 407 399 409 427 454 450 430 415 416 409 368 359 358 375 399 397
330 393 371 351 339 337 323 314 311 311 307 316 303 300 306 380 343 331 333 337 351 338 346 410 398 408 426 440 430 420 432 407 362 351 350 369 394 394
338 386 369 349 338 335 330 321 313 311 313 316 315 311 300 328 356 330 328 330 350 351 334 343 415 400 410 423 428 430 427 374 347 344 350 375 371 391
338 371 374 354 340 331 336 326 319 304 299 317 319 316 301 320 379 331 324 325 336 354 339 339 331 338 347 351 350 348 343 334 333 340 352 357 360 375
321 359 374 361 343 331 332 328 320 313 313 307 325 322 302 317 397 340 324 321 325 334 344 340 325 330 326 328 338 338 333 333 335 343 345 348 354 377
308 352 353 370 345 331 327 324 319 315 310 317 332 327 300 317 330 376 327 318 317 326 330 332 347 338 323 324 325 331 330 328 328 332 335 337 341 383
307 335 348 365 352 334 327 322 319 317 317 333 335 322 301 318 323 421 338 318 312 327 323 326 331 336 342 348 355 355 358 355 353 352 361 366 368 366
309 319 332 338 372 337 325 318 315 319 328 339 333 305 301 313 320 390 397 326 310 320 315 314 317 320 324 326 331 333 332 341 347 350 357 365 369 373
Wind_Speed
110 107 100 106 117 110 107 80 74 54 47 50 54 56 56 54 52 51 50 50 35 53 55 55 56 59 63 62 57 51 49 136 126 123 117 118 119 116
103 107 122 119 113 96 84 71 56 53 47 49 48 47 48 49 50 51 51 51 51 51 52 52 52 56 60 62 62 58 52 47 140 137 124 120 122 123
93 124 117 116 110 85 81 54 50 50 44 39 48 51 51 52 52 53 53 52 51 50 52 50 51 53 56 59 62 62 58 50 89 147 139 127 124 125
121 110 117 110 87 81 53 48 47 42 47 45 51 52 52 53 52 50 51 49 47 46 42 42 42 44 53 56 58 63 63 56 51 118 143 96 126 124
105 116 118 91 82 65 47 46 44 47 47 47 47 50 50 51 50 47 47 44 38 39 40 41 43 43 46 50 53 59 62 63 53 55 148 138 131 130
113 116 108 84 78 45 44 43 45 45 46 48 50 51 47 47 45 43 39 38 37 41 41 43 45 36 48 49 50 53 59 64 60 55 47 148 134 133
119 110 104 79 44 43 39 44 44 42 45 48 50 49 43 42 41 35 35 37 41 43 42 42 45 46 45 50 50 49 61 61 64 56 49 151 150 136
113 105 78 73 40 38 40 43 45 44 46 48 50 46 40 37 31 34 36 36 35 41 38 42 34 33 44 45 48 47 46 58 61 58 48 57 154 146
107 101 72 68 38 37 37 40 41 42 43 47 49 41 37 30 31 32 32 35 34 37 35 38 26 37 37 44 45 44 49 49 61 61 53 61 75 150
103 72 68 42 37 34 38 40 40 41 43 45 48 41 33 29 30 31 31 36 35 34 32 36 33 34 34 33 31 42 51 48 62 64 58 50 66 71
77 66 64 42 34 33 37 39 39 40 41 44 46 46 33 30 31 32 33 37 36 29 25 17 21 24 27 27 31 44 49 47 61 62 62 45 50 63
63 61 50 40 34 32 35 36 37 38 41 42 44 47 33 31 31 33 32 35 34 27 21 20 16 15 19 25 31 41 47 45 58 61 63 44 46 50
60 58 38 38 33 33 35 35 35 37 39 41 42 45 37 32 31 33 33 34 33 29 22 19 15 11 17 25 31 41 44 43 56 60 61 43 42 42
56 54 38 35 33 33 35 33 34 37 38 39 39 42 41 30 30 32 30 31 30 26 22 17 13 7 14 26 34 40 43 43 57 59 58 51 43 48
52 48 37 35 34 32 34 34 34 35 37 37 38 39 42 29 29 30 28 28 28 22 23 16 11 5 9 21 29 35 40 44 56 58 55 44 44 49
49 36 35 34 34 32 34 34 35 36 36 36 35 36 39 27 26 28 25 26 24 16 20 17 12 6 3 17 29 37 39 47 53 52 51 44 42 50
48 35 34 34 34 33 34 35 35 37 37 36 35 35 36 27 24 24 22 23 20 12 15 13 11 5 2 13 24 32 36 46 48 44 42 37 37 41
45 34 33 33 34 33 32 33 34 34 34 34 34 33 33 33 21 21 20 19 17 12 7 8 8 5 2 10 19 28 37 39 37 37 36 32 34 32
42 36 31 31 32 32 30 30 31 33 33 31 31 30 30 29 19 19 17 15 15 10 4 3 3 6 12 17 21 25 28 33 36 35 34 36 36 33
40 37 31 30 30 30 28 28 29 30 30 31 28 27 27 27 18 17 16 14 13 11 5 3 7 9 13 14 18 24 27 30 31 31 32 32 32 33
38 36 33 29 28 28 27 27 27 28 30 30 26 23 25 25 23 16 16 14 13 11 7 5 4 10 14 15 17 19 22 25 26 26 28 30 32 32
35 35 32 30 27 27 26 26 27 28 28 27 24 21 23 24 22 17 18 16 14 12 10 9 7 7 8 10 13 16 19 22 24 25 25 26 27 28
32 33 33 30 26 26 26 27 28 28 27 23 21 22 23 23 22 18 19 19 17 15 15 13 12 10 11 12 13 16 17 16 18 20 20 21 22 24
Wind_Direction
308 307 305 307 311 313 311 309 306 303 298 292 289 288 286 285 284 282 279 275 250 265 262 259 255 252 248 245 247 250 249 227 225 222 220 222 224 219
309 309 313 314 314 314 311 308 305 303 301 294 291 289 289 287 285 282 279 276 272 269 264 259 254 251 248 244 241 243 245 245 222 223 219 218 220 224
305 315 315 317 316 313 310 306 304 301 301 298 295 293 292 288 285 283 280 279 275 271 266 263 256 250 248 244 241 237 239 242 227 218 221 219 218 220
316 316 319 317 316 312 306 306 304 304 303 301 299 298 296 293 290 287 284 283 280 276 271 268 263 258 247 245 241 236 234 237 238 221 218 231 219 222
315 319 318 319 315 312 306 306 305 307 310 312 308 304 299 294 292 290 287 286 281 274 270 267 262 255 251 250 244 237 232 232 235 233 214 216 214 218
320 318 319 319 316 307 304 305 307 311 312 314 312 310 302 297 295 292 291 285 280 276 271 266 263 250 248 247 246 238 232 229 231 232 224 215 215 215
316 318 320 318 311 302 302 304 310 312 314 316 319 314 305 300 296 294 288 284 282 277 275 271 262 258 251 243 242 239 230 227 227 230 225 213 215 212
319 318 319 317 308 296 303 308 313 316 318 320 323 315 306 302 296 293 291 292 293 288 281 272 263 258 249 237 239 237 234 227 225 228 221 215 214 214
317 321 317 317 303 296 299 304 309 313 318 322 328 315 312 304 302 303 307 312 301 295 287 272 260 253 243 237 232 227 226 221 220 222 221 210 214 215
319 317 315 308 297 294 300 305 309 314 319 323 332 326 313 301 303 305 314 317 312 304 286 272 261 252 243 241 227 217 220 216 215 218 220 213 213 207
317 315 314 306 296 292 299 303 307 315 318 323 332 334 314 308 309 312 318 323 320 307 312 320 276 259 246 233 214 210 213 211 211 214 217 215 209 208
315 314 312 305 296 290 296 301 308 313 318 322 332 336 319 312 314 316 318 326 325 311 331 321 309 270 239 222 211 205 209 207 206 212 215 213 207 206
313 313 309 303 295 289 294 299 306 311 315 322 329 334 325 314 313 317 320 328 330 326 338 331 323 281 221 211 200 202 205 202 203 210 213 208 205 197
313 313 308 304 299 289 291 297 303 309 312 318 324 330 333 315 313 318 322 332 333 327 342 346 338 297 217 210 195 200 202 198 201 208 210 209 201 201
312 312 309 306 301 292 291 296 299 303 310 314 322 328 333 319 315 320 325 331 336 332 344 350 357 344 204 203 195 200 199 195 200 206 210 206 202 203
311 311 307 304 301 299 290 291 298 303 307 314 320 324 329 321 316 320 327 332 338 334 349 347 355 6 175 192 194 198 195 191 199 205 210 209 205 208
312 310 306 304 301 297 293 295 298 302 307 311 315 321 326 325 314 319 326 333 338 335 347 351 351 351 173 183 191 199 196 191 195 201 208 211 210 210
315 311 306 302 300 298 295 294 297 302 308 312 314 318 322 329 310 314 322 328 336 336 333 6 6 0 192 183 187 191 189 184 193 198 203 198 207 212
315 313 306 302 299 298 296 295 296 302 307 312 313 316 319 326 308 305 311 318 328 343 307 340 143 129 136 140 151 161 171 185 194 198 199 203 208 207
312 313 310 304 300 298 298 297 298 301 307 311 313 314 315 324 303 290 294 301 309 318 346 245 205 187 182 178 176 179 188 196 202 203 205 208 214 213
307 314 310 303 298 297 296 297 300 302 305 309 311 312 312 321 323 276 275 280 287 287 279 264 228 210 203 202 196 193 196 201 205 209 211 214 217 211
305 315 310 303 295 296 295 297 300 303 305 309 308 308 311 319 321 272 259 261 268 259 244 235 222 210 193 190 191 196 203 210 213 216 215 212 211 211
303 312 311 305 293 291 292 296 299 302 306 305 302 305 310 317 318 310 253 246 252 243 235 228 218 204 191 185 180 178 182 184 189 192 192 197 202 207